| time (UTC) | temp F | wind direction | speed knots | gust knots | rain 1hr in | rain 24hr in | rain mn in | humidity % | barometer mb |
| 20260507140952 | 62 | 167 | 5.2 | 9.6 | 0.00 | 0.00 | 0.00 | 53 | 1014.7 |
| 20260507135922 | 61 | 142 | 3.5 | 8.7 | 0.00 | 0.00 | 0.00 | 53 | 1014.8 |
| 20260507134850 | 61 | 211 | 4.3 | 8.7 | 0.00 | 0.00 | 0.00 | 50 | 1015.0 |
| 20260507133827 | 62 | 192 | 3.5 | 7.8 | 0.00 | 0.00 | 0.00 | 49 | 1015.0 |
| 20260507132805 | 63 | 214 | 5.2 | 7.8 | 0.00 | 0.00 | 0.00 | 49 | 1014.9 |
| 20260507131816 | 62 | 191 | 5.2 | 5.2 | 0.00 | 0.00 | 0.00 | 53 | 1015.0 |
| 20260507130756 | 62 | 197 | 5.2 | 9.6 | 0.00 | 0.00 | 0.00 | 50 | 1015.0 |
| 20260507125815 | 63 | 182 | 6.1 | 9.6 | 0.00 | 0.00 | 0.00 | 49 | 1014.8 |
| 20260507124838 | 64 | 192 | 5.2 | 11.3 | 0.00 | 0.00 | 0.00 | 49 | 1014.9 |
| 20260507123856 | 64 | 201 | 5.2 | 11.3 | 0.00 | 0.00 | 0.00 | 47 | 1015.1 |
| 20260507122911 | 64 | 178 | 5.2 | 8.7 | 0.00 | 0.00 | 0.00 | 51 | 1014.8 |
| 20260507120804 | 61 | 178 | 4.3 | 9.6 | 0.00 | 0.00 | 0.00 | 51 | 1015.1 |
| 20260507115826 | 63 | 221 | 5.2 | 7.8 | 0.00 | 0.00 | 0.00 | 52 | 1015.1 |
| 20260507114846 | 62 | 218 | 5.2 | 9.6 | 0.00 | 0.00 | 0.00 | 54 | 1015.2 |
| 20260507113908 | 60 | 210 | 4.3 | 9.6 | 0.00 | 0.00 | 0.00 | 57 | 1015.3 |
| 20260507112901 | 60 | 210 | 5.2 | 9.6 | 0.00 | 0.00 | 0.00 | 58 | 1015.4 |
| 20260507111915 | 59 | 185 | 5.2 | 7.8 | 0.00 | 0.00 | 0.00 | 58 | 1015.4 |
| 20260507110855 | 59 | 215 | 5.2 | 8.7 | 0.00 | 0.00 | 0.00 | 61 | 1015.4 |
| 20260507105848 | 59 | 193 | 5.2 | 9.6 | 0.00 | 0.00 | 0.00 | 59 | 1015.6 |
| 20260507104909 | 58 | 186 | 5.2 | 9.6 | 0.00 | 0.00 | 0.00 | 66 | 1015.6 |
| 20260507103918 | 57 | 199 | 4.3 | 7.0 | 0.00 | 0.00 | 0.00 | 66 | 1015.7 |
| 20260507102936 | 56 | 201 | 5.2 | 8.7 | 0.00 | 0.00 | 0.00 | 67 | 1015.8 |
| 20260507101902 | 56 | 171 | 5.2 | 11.3 | 0.00 | 0.00 | 0.00 | 68 | 1015.8 |
| 20260507100922 | 55 | 169 | 5.2 | 11.3 | 0.00 | 0.00 | 0.00 | 68 | 1015.8 |
| 20260507095912 | 55 | 195 | 5.2 | 9.6 | 0.00 | 0.00 | 0.00 | 70 | 1015.7 |
| 20260507094926 | 55 | 196 | 4.3 | 9.6 | 0.00 | 0.00 | 0.00 | 71 | 1015.7 |
| 20260507093859 | 54 | 192 | 4.3 | 7.8 | 0.00 | 0.00 | 0.00 | 73 | 1015.7 |
| 20260507092911 | 53 | 251 | 4.3 | 7.8 | 0.00 | 0.00 | 0.00 | 73 | 1015.9 |
| 20260507091854 | 53 | 179 | 5.2 | 7.8 | 0.00 | 0.00 | 0.00 | 74 | 1015.8 |
| 20260507090914 | 52 | 182 | 5.2 | 7.0 | 0.00 | 0.00 | 0.00 | 75 | 1015.9 |
| 20260507090356 | 52 | 212 | 5.2 | 10.4 | 0.00 | 0.00 | 0.00 | 74 | 1016.0 |
| 20260507085329 | 52 | 224 | 5.2 | 10.4 | 0.00 | 0.00 | 0.00 | 77 | 1015.8 |
| 20260507084309 | 51 | 189 | 4.3 | 9.6 | 0.00 | 0.00 | 0.00 | 79 | 1016.0 |
| 20260507083330 | 50 | 191 | 5.2 | 9.6 | 0.00 | 0.00 | 0.00 | 79 | 1016.0 |
| 20260507082314 | 50 | 193 | 4.3 | 7.8 | 0.00 | 0.00 | 0.00 | 81 | 1016.0 |
| 20260507081243 | 49 | 215 | 4.3 | 12.2 | 0.00 | 0.00 | 0.00 | 82 | 1015.9 |
| 20260507080300 | 48 | 187 | 4.3 | 12.2 | 0.00 | 0.00 | 0.00 | 83 | 1015.8 |
| 20260507075249 | 47 | 187 | 4.3 | 7.8 | 0.00 | 0.00 | 0.00 | 85 | 1015.9 |
| 20260507074247 | 47 | 237 | 4.3 | 7.0 | 0.00 | 0.00 | 0.00 | 85 | 1016.0 |
| 20260507073255 | 46 | 198 | 3.5 | 7.0 | 0.00 | 0.00 | 0.00 | 86 | 1015.9 |
| 20260507071133 | 45 | 198 | 3.5 | 7.0 | 0.00 | 0.00 | 0.00 | 87 | 1016.0 |
| 20260507070121 | 45 | 205 | 3.5 | 6.1 | 0.00 | 0.00 | 0.00 | 88 | 1015.9 |
| 20260507065111 | 44 | 230 | 3.5 | 7.0 | 0.00 | 0.00 | 0.00 | 88 | 1015.9 |
| 20260507064104 | 44 | 191 | 3.5 | 7.0 | 0.00 | 0.00 | 0.00 | 89 | 1015.7 |
| 20260507063114 | 44 | 204 | 3.5 | 7.0 | 0.00 | 0.00 | 0.00 | 88 | 1015.8 |
| 20260507062102 | 43 | 189 | 3.5 | 4.3 | 0.00 | 0.00 | 0.00 | 89 | 1015.8 |
| 20260507061126 | 43 | 212 | 3.5 | 4.3 | 0.00 | 0.00 | 0.00 | 88 | 1015.8 |
| 20260507060115 | 42 | 210 | 3.5 | 5.2 | 0.00 | 0.00 | 0.00 | 88 | 1015.6 |
| 20260507053936 | 41 | 222 | 3.5 | 7.0 | 0.00 | 0.00 | 0.00 | 87 | 1015.5 |
| 20260507052938 | 41 | 225 | 3.5 | 7.8 | 0.00 | 0.00 | 0.00 | 87 | 1015.4 |
| 20260507051910 | 41 | 237 | 3.5 | 7.8 | 0.00 | 0.00 | 0.00 | 87 | 1015.6 |
| 20260507050912 | 41 | 212 | 3.5 | 4.3 | 0.00 | 0.00 | 0.00 | 86 | 1015.4 |
| 20260507045915 | 41 | 183 | 2.6 | 4.3 | 0.00 | 0.00 | 0.00 | 86 | 1015.4 |
| 20260507044851 | 41 | 205 | 3.5 | 4.3 | 0.00 | 0.00 | 0.00 | 86 | 1015.3 |
| 20260507043834 | 41 | 212 | 3.5 | 3.5 | 0.00 | 0.00 | 0.00 | 86 | 1015.5 |
| 20260507042843 | 41 | 209 | 2.6 | 3.5 | 0.00 | 0.00 | 0.00 | 86 | 1015.4 |
| 20260507041845 | 41 | 223 | 2.6 | 3.5 | 0.00 | 0.00 | 0.00 | 86 | 1015.4 |
| 20260507040907 | 41 | 208 | 2.6 | 3.5 | 0.00 | 0.00 | 0.00 | 86 | 1015.3 |
| 20260507033655 | 42 | 206 | 2.6 | 3.5 | 0.00 | 0.00 | 0.00 | 86 | 1015.3 |
| 20260507032720 | 42 | 215 | 2.6 | 4.3 | 0.00 | 0.00 | 0.00 | 86 | 1015.4 |
| 20260507031721 | 42 | 231 | 2.6 | 4.3 | 0.00 | 0.00 | 0.00 | 86 | 1015.3 |
| 20260507030729 | 42 | 205 | 2.6 | 4.3 | 0.00 | 0.00 | 0.00 | 86 | 1015.4 |
| 20260507025749 | 42 | 209 | 2.6 | 4.3 | 0.00 | 0.00 | 0.00 | 86 | 1015.3 |
| 20260507024755 | 42 | 216 | 2.6 | 3.5 | 0.00 | 0.00 | 0.00 | 86 | 1015.3 |
| 20260507022620 | 42 | 201 | 2.6 | 3.5 | 0.00 | 0.00 | 0.00 | 85 | 1015.6 |
| 20260507021626 | 42 | 205 | 2.6 | 3.5 | 0.00 | 0.00 | 0.00 | 85 | 1015.4 |
| 20260507020604 | 42 | 234 | 2.6 | 3.5 | 0.00 | 0.00 | 0.00 | 85 | 1015.4 |
| 20260507015625 | 42 | 215 | 2.6 | 3.5 | 0.00 | 0.00 | 0.00 | 85 | 1015.4 |
| 20260507014641 | 42 | 210 | 2.6 | 3.5 | 0.00 | 0.00 | 0.00 | 85 | 1015.5 |
| 20260507013643 | 42 | 208 | 2.6 | 3.5 | 0.00 | 0.00 | 0.00 | 85 | 1015.6 |
| 20260507012617 | 42 | 221 | 2.6 | 4.3 | 0.00 | 0.00 | 0.00 | 85 | 1015.5 |
| 20260507011614 | 42 | 237 | 3.5 | 4.3 | 0.00 | 0.00 | 0.00 | 85 | 1015.6 |
| 20260507010637 | 42 | 226 | 3.5 | 3.5 | 0.00 | 0.00 | 0.00 | 84 | 1015.7 |
| 20260507004504 | 42 | 222 | 2.6 | 3.5 | 0.00 | 0.00 | 0.00 | 83 | 1015.6 |
| 20260507003448 | 42 | 227 | 2.6 | 3.5 | 0.00 | 0.00 | 0.00 | 83 | 1015.5 |
| 20260507002508 | 42 | 207 | 2.6 | 3.5 | 0.00 | 0.00 | 0.00 | 84 | 1015.6 |
| 20260507000336 | 42 | 221 | 2.6 | 4.3 | 0.00 | 0.00 | 0.00 | 84 | 1015.7 |
| 20260506235341 | 42 | 218 | 1.7 | 3.5 | 0.00 | 0.00 | 0.00 | 84 | 1015.8 |
| 20260506234313 | 42 | 205 | 1.7 | 3.5 | 0.00 | 0.00 | 0.00 | 83 | 1015.8 |
| 20260506233244 | 42 | 220 | 1.7 | 3.5 | 0.00 | 0.00 | 0.00 | 82 | 1015.9 |
| 20260506232253 | 42 | 224 | 2.6 | 3.5 | 0.00 | 0.00 | 0.00 | 82 | 1015.9 |
| 20260506231229 | 42 | 215 | 2.6 | 3.5 | 0.00 | 0.00 | 0.00 | 81 | 1015.8 |
| 20260506230212 | 42 | 210 | 2.6 | 3.5 | 0.00 | 0.00 | 0.00 | 80 | 1015.8 |
| 20260506225229 | 42 | 226 | 2.6 | 3.5 | 0.00 | 0.00 | 0.00 | 80 | 1016.0 |
| 20260506224218 | 42 | 212 | 2.6 | 3.5 | 0.00 | 0.00 | 0.00 | 80 | 1015.8 |
| 20260506223228 | 43 | 215 | 2.6 | 3.5 | 0.00 | 0.00 | 0.00 | 80 | 1015.8 |
| 20260506221158 | 43 | 185 | 2.6 | 3.5 | 0.00 | 0.00 | 0.00 | 80 | 1015.7 |
| 20260506220200 | 43 | 218 | 2.6 | 3.5 | 0.00 | 0.00 | 0.00 | 80 | 1015.5 |
| 20260506215145 | 43 | 213 | 2.6 | 4.3 | 0.00 | 0.00 | 0.00 | 79 | 1015.5 |
| 20260506214133 | 44 | 198 | 2.6 | 4.3 | 0.00 | 0.00 | 0.00 | 79 | 1015.5 |
| 20260506213110 | 44 | 216 | 2.6 | 4.3 | 0.00 | 0.00 | 0.00 | 79 | 1015.3 |
| 20260506212056 | 44 | 207 | 2.6 | 4.3 | 0.00 | 0.00 | 0.00 | 78 | 1015.3 |
| 20260506211051 | 44 | 186 | 2.6 | 4.3 | 0.00 | 0.00 | 0.00 | 78 | 1015.3 |
| 20260506210055 | 45 | 203 | 2.6 | 4.3 | 0.00 | 0.00 | 0.00 | 78 | 1015.2 |
| 20260506205048 | 45 | 171 | 2.6 | 6.1 | 0.00 | 0.00 | 0.00 | 78 | 1015.1 |
| 20260506204053 | 45 | 204 | 2.6 | 6.1 | 0.00 | 0.00 | 0.00 | 77 | 1015.0 |
| 20260506203100 | 45 | 205 | 2.6 | 5.2 | 0.00 | 0.00 | 0.00 | 77 | 1015.0 |
| 20260506202121 | 46 | 187 | 2.6 | 5.2 | 0.00 | 0.00 | 0.00 | 76 | 1014.9 |
| 20260506201047 | 46 | 184 | 2.6 | 3.5 | 0.00 | 0.00 | 0.00 | 76 | 1014.9 |
| 20260506200029 | 47 | 181 | 2.6 | 4.3 | 0.00 | 0.00 | 0.00 | 75 | 1014.9 |
| 20260506195035 | 47 | 196 | 2.6 | 5.2 | 0.00 | 0.00 | 0.00 | 74 | 1014.9 |
| 20260506194022 | 47 | 186 | 2.6 | 5.2 | 0.00 | 0.00 | 0.00 | 74 | 1014.8 |
| 20260506193036 | 48 | 184 | 2.6 | 3.5 | 0.00 | 0.00 | 0.00 | 74 | 1014.7 |
| 20260506192036 | 48 | 192 | 2.6 | 5.2 | 0.00 | 0.00 | 0.00 | 74 | 1014.6 |
| 20260506191008 | 48 | 174 | 2.6 | 6.1 | 0.00 | 0.00 | 0.00 | 74 | 1014.7 |
| 20260506185943 | 49 | 199 | 2.6 | 6.1 | 0.00 | 0.00 | 0.00 | 74 | 1014.7 |
| 20260506184921 | 49 | 206 | 2.6 | 5.2 | 0.00 | 0.00 | 0.00 | 74 | 1014.8 |
| 20260506182814 | 49 | 201 | 2.6 | 5.2 | 0.00 | 0.00 | 0.00 | 73 | 1014.7 |
| 20260506181803 | 49 | 191 | 2.6 | 5.2 | 0.00 | 0.00 | 0.00 | 72 | 1014.8 |
| 20260506180805 | 50 | 165 | 2.6 | 5.2 | 0.00 | 0.00 | 0.00 | 72 | 1014.6 |
| 20260506175759 | 50 | 182 | 3.5 | 6.1 | 0.00 | 0.00 | 0.00 | 71 | 1014.5 |
| 20260506174823 | 50 | 164 | 3.5 | 6.1 | 0.00 | 0.00 | 0.00 | 71 | 1014.4 |
| 20260506173757 | 50 | 186 | 3.5 | 7.8 | 0.00 | 0.00 | 0.00 | 70 | 1014.3 |
| 20260506172739 | 51 | 193 | 3.5 | 7.8 | 0.00 | 0.00 | 0.00 | 70 | 1014.4 |
| 20260506171800 | 51 | 183 | 3.5 | 7.0 | 0.00 | 0.00 | 0.00 | 70 | 1014.2 |
| 20260506170824 | 51 | 157 | 3.5 | 7.0 | 0.00 | 0.00 | 0.00 | 69 | 1014.1 |
| 20260506164723 | 52 | 181 | 3.5 | 7.8 | 0.00 | 0.00 | 0.00 | 68 | 1014.1 |
| 20260506163746 | 52 | 177 | 3.5 | 7.8 | 0.00 | 0.00 | 0.00 | 67 | 1014.1 |
| 20260506162805 | 53 | 175 | 3.5 | 7.0 | 0.00 | 0.00 | 0.00 | 67 | 1014.1 |
| 20260506161738 | 53 | 167 | 3.5 | 7.0 | 0.00 | 0.00 | 0.00 | 66 | 1014.1 |
| 20260506160733 | 53 | 169 | 3.5 | 7.0 | 0.00 | 0.00 | 0.00 | 66 | 1014.1 |
| 20260506155709 | 53 | 142 | 3.5 | 7.8 | 0.00 | 0.00 | 0.00 | 63 | 1014.2 |
| 20260506154653 | 54 | 172 | 3.5 | 7.8 | 0.00 | 0.00 | 0.00 | 62 | 1014.2 |
| 20260506153714 | 54 | 162 | 3.5 | 7.8 | 0.00 | 0.00 | 0.00 | 62 | 1014.0 |
| 20260506152729 | 55 | 150 | 3.5 | 9.6 | 0.00 | 0.00 | 0.00 | 60 | 1014.0 |
| 20260506150548 | 54 | 126 | 2.6 | 7.0 | 0.00 | 0.00 | 0.00 | 60 | 1014.1 |
| 20260506145527 | 55 | 168 | 2.6 | 7.0 | 0.00 | 0.00 | 0.00 | 60 | 1014.0 |
| 20260506144550 | 54 | 174 | 2.6 | 7.0 | 0.00 | 0.00 | 0.00 | 62 | 1013.9 |
| 20260506143550 | 53 | 174 | 3.5 | 7.0 | 0.00 | 0.00 | 0.00 | 61 | 1013.9 |
| 20260506142600 | 53 | 166 | 3.5 | 7.0 | 0.00 | 0.00 | 0.00 | 62 | 1014.0 |